Location: Unspecified
(38.0989°N, 0.6729°W)
Time: 22:37:52
(UTC+01:00)

ISS - Visible Passes

Search period start: 25 February 2018 00:00
Search period end: 07 March 2018 00:00
Orbit: 403 x 406 km, 51.6° (Epoch: 26 February)

Date Brightness Start Highest point End Pass type
(mag) Time Alt. Az. Time Alt. Az. Time Alt. Az.
26 Feb -1.4 06:20:48 10° S 06:23:24 22° SE 06:26:01 10° ENE visible
27 Feb -0.8 05:30:33 10° SE 05:31:23 11° SE 05:32:26 10° ESE visible
27 Feb -3.8 07:04:12 10° WSW 07:07:28 65° NW 07:10:43 10° NE visible
28 Feb -3.4 06:13:48 29° SSW 06:15:13 60° SE 06:18:28 10° ENE visible
01 Mar -1.4 05:24:08 23° E 05:24:08 23° E 05:25:56 10° ENE visible
01 Mar -2.7 06:56:49 11° W 06:59:30 28° NNW 07:02:25 10° NNE visible
02 Mar -3.6 06:06:58 50° NW 06:07:08 51° NW 06:10:21 10° NE visible
03 Mar -1.2 05:17:00 20° NE 05:17:00 20° NE 05:18:07 10° NE visible
03 Mar -1.8 06:49:40 11° WNW 06:51:40 16° NNW 06:53:51 10° NNE visible
04 Mar -2.2 05:59:34 24° NNW 05:59:34 24° NNW 06:01:55 10° NNE visible
05 Mar -0.7 05:09:24 13° NE 05:09:24 13° NE 05:09:51 10° NE visible
05 Mar -1.3 06:42:57 10° NNW 06:43:54 11° NNW 06:44:51 10° N visible
06 Mar -1.4 05:51:48 14° N 05:51:48 14° N 05:53:13 10° NNE visible
